Location: Bothwell
(42.3833°S, 147.0000°E)
Time: 00:25:11
(UTC+10:00)

SPROUT - Visible Passes

Search period start: 01 October 2022 23:00
Search period end: 12 October 2022 00:00
Orbit: 585 x 598 km, 98.0° (Epoch: 01 October)

Date Brightness Start Highest point End Pass type
(mag) Time Alt. Az. Time Alt. Az. Time Alt. Az.
02 Oct ? 04:03:02 10° SSW 04:03:37 13° SSW 04:03:37 13° SSW visible
03 Oct ? 02:35:28 10° SSE 02:35:42 11° SSE 02:35:42 11° SSE visible
03 Oct ? 04:11:46 10° SSW 04:12:17 12° SSW 04:12:17 12° SSW visible
04 Oct ? 02:43:48 10° SSE 02:44:21 13° SSE 02:44:21 13° SSE visible
04 Oct ? 04:20:34 10° SSW 04:20:56 11° SSW 04:20:56 11° SSW visible
05 Oct ? 02:52:10 10° SSE 02:52:59 15° SSE 02:52:59 15° SSE visible
05 Oct ? 04:29:29 10° SW 04:29:33 10° SW 04:29:33 10° SW visible
06 Oct ? 03:00:33 10° SSE 03:01:36 17° SSE 03:01:36 17° SSE visible
07 Oct ? 03:08:56 10° S 03:10:12 19° S 03:10:12 19° S visible
08 Oct ? 03:17:20 10° S 03:18:47 21° S 03:18:47 21° S visible
09 Oct ? 03:25:45 10° S 03:27:20 22° S 03:27:20 22° S visible
10 Oct ? 03:34:10 10° S 03:35:53 22° SSW 03:35:53 22° SSW visible
11 Oct ? 02:07:43 10° SE 02:07:51 11° SE 02:07:51 11° SE visible
11 Oct ? 03:42:36 10° S 03:44:25 22° SSW 03:44:25 22° SSW visible
